Location: Izdebno
(52.6670°N, 16.2170°E)
Time: 04:33:08
(UTC+02:00)

Transit 4A - Pass Details

Date: 29 February 2024
Orbit: 871 x 972 km, 66.8° (Epoch: 22 April)

Event Time Altitude Azimuth Distance (km) Brightness Sun altitude
Rises 01:57:50 0° 238° (WSW) 3,588 - -39.9°
Reaches altitude 10° 02:00:29 10° 244° (WSW) 2,631 - -39.6°
Maximum altitude 02:06:25 50° 319° (NW) 1,146 - -39.1°
Exits shadow 02:09:09 30° 19° (NNE) 1,579 9.4 -38.8°
Drops below altitude 10° 02:12:13 10° 35° (NE) 2,575 10.9 -38.5°
Sets 02:14:47 0° 41° (NE) 3,505 11.9 -38.3°
